Cloud_Cover
100 100 100 100 63 0 2 27 6 10 52 100 99 90 100 100 100 100 100 100 100 100 74 6 5 5 3 0 0 0 0 0 0 0 0 0 0 0 0 0 0 0 2 0 0 0 0 0 0
100 100 100 100 2 10 82 25 100 99 95 72 100 100 100 100 99 99 100 100 100 98 37 50 5 5 5 0 0 0 0 0 0 0 0 0 0 0 0 0 0 32 0 8 0 0 0 0 0
100 89 99 50 0 2 90 100 100 100 100 98 78 100 100 100 72 88 100 100 100 100 100 100 95 5 5 0 0 0 0 0 0 0 0 0 0 0 0 2 2 31 24 15 0 0 0 0 0
100 76 80 10 83 68 99 100 100 100 100 100 100 100 100 100 98 100 100 100 100 100 100 100 35 5 5 0 0 0 0 0 0 0 0 0 0 0 3 55 2 21 12 0 0 0 0 0 0
3 95 97 0 2 65 100 100 100 100 100 100 100 100 100 100 100 100 100 100 100 100 100 94 11 4 5 5 0 0 0 0 0 0 0 0 0 0 0 0 0 0 0 0 0 0 0 0 0
99 97 3 1 5 84 100 100 100 100 100 100 100 100 100 100 100 100 100 100 100 100 100 94 22 5 3 5 0 0 0 0 0 0 0 0 0 0 0 0 0 0 0 0 0 0 0 0 0
1 4 58 40 60 89 100 100 100 100 100 100 100 100 100 100 100 97 100 100 100 100 100 60 5 4 2 0 0 0 0 0 0 0 0 0 0 0 0 0 0 0 0 0 0 0 0 0 0
100 86 5 7 81 100 100 100 100 96 100 100 100 100 100 100 100 100 100 100 100 100 100 84 95 6 5 5 0 2 0 0 0 0 0 0 0 0 0 0 0 0 0 0 0 0 0 0 0
100 92 100 100 100 100 100 100 100 92 100 100 100 99 100 100 100 100 100 99 100 100 100 100 70 83 28 12 5 2 5 5 0 0 0 76 0 0 0 0 0 0 0 0 0 0 0 0 0
91 100 100 100 100 100 100 100 100 55 100 100 100 100 98 100 100 100 100 100 100 100 100 100 100 86 78 88 30 8 5 5 7 51 37 0 0 0 0 0 0 0 0 0 0 0 0 0 0
100 100 100 98 98 100 100 100 100 47 89 100 100 100 100 100 100 100 100 100 100 100 100 100 100 100 100 100 92 95 56 16 20 58 37 91 7 0 0 0 0 0 2 10 0 0 3 0 0
45 100 100 100 54 27 79 100 100 100 100 100 99 100 100 100 100 100 100 100 100 100 100 100 100 100 100 100 100 100 99 96 76 94 100 100 96 11 0 0 0 0 0 5 0 8 0 0 0
100 45 99 96 100 8 14 100 100 100 100 92 100 100 100 100 100 100 100 100 100 100 100 100 100 100 100 100 100 100 100 100 92 88 62 85 100 100 94 69 3 0 0 0 3 0 0 0 0
100 100 100 100 96 100 100 68 77 100 100 96 76 97 100 100 100 100 100 100 100 100 100 100 100 100 100 100 100 100 100 100 100 99 100 99 91 93 100 89 87 3 0 0 0 5 5 0 1
75 100 100 100 39 0 4 19 7 16 100 100 100 100 59 85 100 100 100 100 98 82 100 100 100 100 81 26 30 86 97 96 94 100 100 98 100 100 100 100 99 95 80 5 4 0 5 12 28
81 6 97 100 2 0 1 0 1 0 4 100 100 100 84 6 48 100 100 100 100 100 100 81 30 86 94 53 25 5 6 5 5 53 86 100 100 100 100 100 100 100 99 100 46 96 100 100 100
98 40 1 0 2 0 0 0 0 4 33 21 100 100 100 89 7 92 65 99 100 100 92 100 90 91 94 83 14 46 42 90 5 5 18 24 94 100 100 100 100 100 100 100 100 100 100 100 100
100 100 100 100 85 74 20 4 5 4 27 90 100 100 100 100 86 25 58 68 100 100 100 100 100 89 83 28 42 82 29 43 63 30 5 8 5 7 99 100 100 100 100 100 100 100 100 100 100
0 0 0 66 100 100 100 100 100 61 38 20 5 6 77 86 100 81 100 96 28 4 5 7 96 100 99 70 24 14 73 56 5 5 5 75 67 5 22 100 100 100 100 100 100 100 100 100 100
0 0 0 0 0 0 2 0 4 80 100 100 15 4 6 5 4 3 5 72 57 26 56 2 5 28 8 74 71 23 6 5 5 5 4 4 62 99 71 60 100 100 100 100 99 100 100 100 100
3 4 5 4 5 5 4 0 0 0 0 0 11 65 100 79 46 25 19 22 7 38 4 0 0 0 5 8 4 2 5 5 5 4 5 4 5 43 68 15 53 99 100 100 100 100 100 100 100
0 4 2 0 2 13 5 5 5 1 0 0 0 0 0 4 4 6 4 76 42 4 5 18 4 1 2 0 0 4 5 1 5 4 2 1 2 5 5 17 9 13 100 100 100 100 100 100 100
0 0 0 0 0 0 4 1 0 0 0 0 0 0 0 0 0 0 0 0 0 0 0 0 0 0 1 0 7 4 0 0 0 3 5 4 2 0 4 15 6 6 6 99 100 100 100 100 100
0 0 0 0 0 0 0 0 0 0 0 0 0 0 4 0 0 0 0 0 0 0 0 0 0 0 0 0 0 0 0 0 0 0 5 5 4 0 0 0 1 5 5 32 94 100 100 100 100
0 0 3 0 0 0 0 0 0 0 0 0 0 1 0 0 0 0 0 0 0 0 0 0 0 0 0 0 0 0 0 0 0 0 0 0 3 4 0 0 0 0 5 58 6 38 99 100 100
0 0 4 0 3 1 0 0 0 0 0 0 0 0 0 0 0 0 0 0 0 0 0 0 0 0 0 0 0 0 0 0 0 0 0 0 0 0 0 1 1 0 0 6 5 5 16 95 100
0 0 0 0 3 5 3 0 0 0 0 0 0 0 0 0 0 0 0 0 0 0 0 0 0 0 0 0 0 0 0 0 0 0 0 0 0 0 0 0 0 0 1 0 0 5 21 70 98
0 0 2 3 1 0 0 0 0 0 0 0 0 0 0 0 0 0 0 0 0 0 0 0 0 0 0 0 0 0 0 0 0 0 0 0 0 0 0 0 0 0 0 0 0 0 4 5 57
0 0 0 2 3 4 3 0 0 0 0 2 5 3 0 0 0 0 0 0 0 0 0 0 0 0 0 0 0 0 0 0 0 0 0 0 0 0 0 0 0 0 0 0 0 0 0 1 5
1 0 0 0 0 3 4 0 0 0 0 5 5 5 0 0 0 0 0 0 0 0 0 0 0 0 0 0 0 0 0 0 0 0 0 0 0 0 0 0 0 0 0 0 0 0 0 0 0